Flag for Japan Weather past 2 weeks in Nagasaki, Japan

Now
63 °F

Mild.


Feels Like: 63 °F
Forecast: 57 / 69 °F
Wind: 5 mph from Northeast

Location: Nagasaki


UV Index: 5 (Moderate)

Visibility: N/A


Pressure: 29.93 "Hg

Humidity: 63%

Dew point: 51 °F

Location of NagasakiLocation

Historic Weather in Nagasaki

°F

Nagasaki temperature yesterday

Maximum temperature yesterday: 67 °F (at 3:00 PM)
Minimum temperature yesterday: 54 °F (at 6:00 AM)
Average temperature yesterday: 60 °F

Past Weeks' High & Low Weather Summary

 TemperatureHumidityPressure
High72 °F (Apr 21, 2:00 PM)96% (Apr 18, 9:00 AM)30.22 "Hg (Apr 18, 9:00 AM)
Low44 °F (Apr 7, 2:00 AM)16% (Apr 14, 3:00 PM)29.80 "Hg (Apr 13, 3:00 PM)
Average60 °F71%30.02 "Hg
* Reported Apr 6 9:00 PM — Apr 21 9:00 PM, Nagasaki, Weather by CustomWeather, © 2014

Note: Actual official high and low records may vary slightly from our data, if they occured in-between our weather recording intervals... More about our weather records

Advertising

Historic Weather Conditions — Data for Previous 24 hours

 ConditionsComfort  
Time TempWeatherWind HumidityBarometerVisibility
9:00 PM
Apr 21
64 °FOvercast.6 mph61%29.90 "Hg12 mi
8:00 PM65 °FMild.7 mph62%29.90 "HgN/A
7:00 PM67 °FMild.2 mph63%29.88 "HgN/A
6:00 PM68 °FOvercast.6 mph68%29.87 "Hg9 mi
5:00 PM69 °FMild.7 mph64%29.85 "HgN/A
4:00 PM70 °FMild.7 mph66%29.85 "HgN/A
3:00 PM71 °FOvercast.8 mph64%29.86 "Hg9 mi
2:00 PM72 °FMild.5 mph59%29.85 "HgN/A
1:00 PM69 °FMild.8 mph62%29.88 "HgN/A
12:00 PM66 °FOvercast.8 mph70%29.90 "Hg9 mi
11:00 AM67 °FMild.6 mph73%29.92 "HgN/A
10:00 AM63 °FMild.7 mph80%29.93 "HgN/A
9:00 AM63 °FOvercast.3 mph85%29.93 "Hg12 mi
8:00 AM61 °FCool.2 mph91%29.93 "HgN/A
7:00 AM59 °FCool.2 mph95%29.92 "HgN/A
6:00 AM58 °FSprinkles. Low clouds.3 mph95%29.92 "Hg6 mi
5:00 AM59 °FCool.5 mph92%29.92 "HgN/A
4:00 AM59 °FCool.6 mph89%29.92 "HgN/A
3:00 AM60 °FSprinkles. Overcast.3 mph85%29.93 "Hg9 mi
2:00 AM60 °FCool.6 mph84%29.93 "HgN/A
1:00 AM61 °FCool.5 mph78%29.93 "HgN/A
12:00 AM61 °FCool.5 mph80%29.93 "HgN/A
11:00 PM
Apr 20
61 °FCool.6 mph82%29.94 "HgN/A
Weather by CustomWeather, © 2014

See weather overview